Clearfield, PA

9:37 PM EDT on March 23, 2017 (GMT -0400)
Clearfield | | Change Station
Active Advisory: Winter Weather Advisory

Elev 1127 ft 41.02 °N, 78.46 °W | Updated 2 minutes ago

Clear
Clear
31.6 °F
Feels Like 32 °F
N
0.0
Wind Variable Wind from NNE
Gusts 4.0 mph

Today
High -- | Low -- °F
--% Chance of Precip.
Yesterday
High -- | Low -- °F
Precip. -- in
Pressure 30.42 in
Visibility 10.0 miles
Clouds Clear
Windchill 32 °F
Dew Point 18 °F
Humidity 56%
Rainfall 0.02 in
Snow Depth Not available.
7:11 AM 7:29 PM
Waning Crescent, 19% visible
METAR KDUJ 240053Z AUTO 14006KT 10SM CLR 03/M14 A3035 RMK AO2 SLP299 T00331144
Pressure 30.42 in
Visibility 10.0 miles
Clouds Clear
Windchill 32 °F
Dew Point 18 °F
Humidity 56%
Rainfall 0.02 in
Snow Depth Not available.
7:11 AM 7:29 PM
Waning Crescent, 19% visible
METAR KDUJ 240053Z AUTO 14006KT 10SM CLR 03/M14 A3035 RMK AO2 SLP299 T00331144

Get Your Daily Forecast Email!

Thanks for signing up!

Be on the lookout for a verification email in your inbox.

You'll start receiving severe weather alerts in your inbox..

×

10-Day Weather Forecast

Almanac

Astronomy

Mar. 23, 2017 Rise Set
Actual Time
Civil Twilight
Nautical Twilight
Astronomical Twilight
Moon
Length of Visible Light
Length of Day
Tomorrow will be .
, % of the Moon is Illuminated

Today's Extremes

State Highs State Lows

Community

WunderPhotos

Upload Photos

1,962,540 photos uploaded!

WunderBlog® & News

Nearby

Air Quality

  Air Quality AQ Index Pollutant
Not available.

Snow Depth

Station Depth Elevation

Earthquake Activity

City Distance Mag. Time & Date
Minimum magnitude displayed is 2.5.

Earthquake Activity

City Distance Mag. Time & Date
Minimum magnitude displayed is 2.5.

Coastal Water Temperatures

Place Temperature

Stations

Nearby Weather Stations

Station Location Temp. Windchill Dew Point Humidity Wind Precip. Elev Updated Type
                   

Watches & Warnings

Winter Weather Advisory
Issued: 8:11 PM EDT Mar. 23, 2017 – National Weather Service

... Winter Weather Advisory in effect from 4 am to 11 am EDT
Friday...

The National Weather Service in State College has issued a Winter
Weather Advisory for a light accumulation of sleet and freezing
rain, which is in effect from 4 am to 11 am EDT Friday.

* Timing... from late tonight through mid to late Friday morning.

* Hazards... patchy freezing rain with some sleet also possible.

* Accumulations... a trace to one tenth of an inch of ice and
sleet.

* Temperatures... in the upper 20s to lower 30s overnight.

* Impacts... a thin layer of freezing rain and sleet may result in
icy spots on untreated roads, parking lots and walkways.

Precautionary/preparedness actions...

The Pennsylvania Department of Transportation reminds motorists
to adjust speeds based on driving conditions and to take it slow
in ice and snow.